STARLINK-34312, 64711

Orbit data source: Space-Track

STARLINK-34312, 64711 is a payload satellite owned by SpaceX/Seattle (US) in LEO that was launched on Sat, 28 Jun 2025 UTC via an FALCON 9 launch vehicle from the Air Force Western Test Range (AFWTR). Payload-class satellites include a variety of spacecraft equipped with specific instruments for various scientific and technological missions. These include communications satellites like Starlink; space stations such as the ISS; scientific satellites like the Hubble; Earth observation satellites from companies like Planet Labs, Umbra, and HawkEye 360; GPS; miniature CubeSats for education and research; and military/defense satellites.

Not visible in the next 10 days
Identifier
64711, 2025-142R
Orbit
LEO
Last TLE update
8 hours ago
Origin
Manufacturer
SpaceX/Seattle
Mission
Operational spacecraft
Bus & Motor
STARLINK V2MO, Unknown motor
Mass
575 kg wet, ~530 kg dry
Launch date (UTC)
2025-06-28 (1 week ago)
Launch vehicle
FALCON 9
Launch site
Air Force Western Test Range (AFWTR)
Object type
Payload
Rocket body
Debris
Shape & HBR
Unknown
Radar Cross Section
RCS unknown

Expand to show TLE details & history

TLE from 8 hours ago
0 STARLINK-34312
1 64711U 25142R   25186.58335648 -.01202500  00000-0 -48538-2 0  9999
2 64711  69.9944 231.3152 0003738 277.1817  66.8802 15.88811591  2293
Epoch: 2025-07-05T14:00Z
TLE epoch observation values (Epoch: 2025-07-05T14:00:01.999Z)
Latitude
-15.11862°
Longitude
91.8746°
Altitude
310.316 km
Speed
7.722 km/s
True Right ascension
15h 02m 48s
True Declination
-15° 01' 35"
Sunlit
Object was in full shadow at epoch
Visualization orbit readout
Latitude
70.0952°
Longitude
-172.417°
Altitude
321.915 km
Speed
7.721 km/s
Apparent Right ascension
21h 46m 35s
Apparent Declination
17° 06' 01"
Sunlit
Object is in daylight
Visualization observer readout
Local Sidereal Time
09:56:21
Azimuth
2.783° NNE
Elevation
-32.938°
Doppler factor
1
Orbital elements
Apogee altitude
305.978 km
Perigee altitude
300.983 km
Semi-major axis
6,681.617 km
Eccentricity
0.00037
Inclination
69.9944°
RAAN
231.3152°
Arg. of periapsis
277.1817°
True anomaly
Unknown
Mean anomaly
66.8802°
Eccentric anomaly
Unknown
Mean motion
3.97393 °/min
Orbital period
90.59 mins
BSTAR
-0.0048538
Loading maneuver chart data...
Loading SW <> Apogee altitude chart data...
Loading historical data...
Loading historical data...
Loading historical data...
Loading historical data...
Loading historical data...
Loading historical data...
Loading historical data...

STARLINK-34312 Visibility

Observer location: undefined°, undefined°

STARLINK-34312 is likely not visible in the next few days
Span
Click to sort rows by Start time (UTC) header in descending order
Start Az.
Max El. time (UTC)
Max El. Az.
Max El.
End time (UTC)
End Az.
|